EW0294 Weather Reports


time (UTC)temp
C
wind
direction
speed
KPH
gust
KPH
rain 1hr
cm
rain 24hr
cm
rain mn
cm
humidity
%
barometer
mb
20260504211502 16 100 0.0 8.0 0.00 0.08 0.08 52 1004.1
20260504210001 16 9 0.0 6.4 0.00 0.08 0.08 54 1004.2
20260504204501 16 319 3.2 9.7 0.00 0.08 0.08 52 1004.1
20260504203105 16 344 3.2 8.0 0.00 0.08 0.08 53 1004.1
20260504201559 15 338 1.6 9.7 0.00 0.08 0.08 54 1004.0
20260504200103 16 316 1.6 9.7 0.00 0.08 0.08 51 1004.0
20260504194605 16 292 1.6 12.9 0.00 0.08 0.08 53 1004.0
20260504193100 16 323 4.8 16.1 0.00 0.08 0.08 52 1003.8
20260504191612 16 321 3.2 16.1 0.00 0.08 0.08 53 1003.9
20260504190056 16 318 4.8 11.3 0.00 0.08 0.08 53 1003.9
20260504184554 16 198 4.8 9.7 0.00 0.08 0.08 53 1003.8
20260504183055 16 226 3.2 9.7 0.00 0.08 0.08 55 1003.9
20260504181558 15 222 4.8 14.5 0.00 0.08 0.08 55 1004.0
20260504180051 15 45 1.6 16.1 0.00 0.08 0.08 59 1004.0
20260504174550 15 275 3.2 12.9 0.00 0.08 0.08 58 1004.1
20260504173049 13 284 4.8 20.9 0.00 0.08 0.08 61 1004.3
20260504171551 13 288 0.0 11.3 0.00 0.08 0.08 65 1004.4
20260504100104 -2 300 0.0 0.0 0.00 0.00 0.00 87 1006.6
20260504090106 -1 300 0.0 3.2 0.00 0.00 0.00 86 1006.1
20260504081552 -1 300 0.0 0.0 0.00 0.00 0.00 84 1006.1
20260504050022 2 332 0.0 0.0 0.00 0.00 0.00 70 1005.8
20260504044523 2 332 0.0 1.6 0.00 0.03 0.00 69 1005.8
20260504043025 2 332 0.0 0.0 0.00 0.03 0.00 67 1005.9
20260504041516 3 332 0.0 0.0 0.00 0.03 0.00 65 1005.7
20260504040014 3 332 1.6 4.8 0.00 0.03 0.00 64 1005.7
20260504034509 3 333 0.0 0.0 0.00 0.03 0.03 62 1005.4
20260504033011 4 333 0.0 3.2 0.00 0.03 0.03 60 1005.5
20260504031506 5 333 0.0 0.0 0.00 0.03 0.03 58 1005.5
20260504030008 5 333 0.0 1.6 0.00 0.03 0.03 57 1005.4
20260504024505 6 333 0.0 0.0 0.00 0.03 0.03 55 1005.3
20260504023004 6 333 0.0 4.8 0.00 0.03 0.03 54 1005.3
20260504021506 6 349 3.2 11.3 0.00 0.03 0.03 53 1005.3
20260504020004 6 347 3.2 6.4 0.00 0.05 0.03 53 1005.2
20260504014505 6 333 3.2 6.4 0.00 0.05 0.03 52 1005.2
20260504013004 6 348 3.2 8.0 0.00 0.05 0.03 51 1005.1
20260504011508 7 333 1.6 9.7 0.00 0.05 0.03 51 1005.0
20260504010002 7 329 0.0 4.8 0.00 0.08 0.03 49 1004.9
20260504004502 7 344 1.6 9.7 0.00 0.08 0.03 48 1004.7
20260504003000 8 5 1.6 8.0 0.00 0.08 0.03 47 1004.4
20260504001608 8 322 3.2 9.7 0.00 0.08 0.03 47 1004.3
20260504000128 8 347 1.6 6.4 0.00 0.08 0.03 47 1004.1
20260503234600 8 18 0.0 16.1 0.00 0.13 0.03 46 1003.9
20260503233059 8 323 4.8 11.3 0.00 0.13 0.03 44 1003.7
20260503231559 8 311 4.8 11.3 0.00 0.13 0.03 44 1003.7
20260503224557 9 348 4.8 16.1 0.00 0.13 0.03 42 1003.4
20260503223057 9 288 1.6 9.7 0.00 0.13 0.03 43 1003.3
20260503221556 10 350 3.2 17.7 0.00 0.13 0.03 42 1003.1
20260503220114 10 340 3.2 14.5 0.00 0.13 0.03 41 1002.8
20260503214556 10 316 4.8 14.5 0.00 0.13 0.03 41 1002.7
20260503213057 10 312 3.2 14.5 0.00 0.13 0.03 40 1002.6